Torna al catalogo

COSMOS 2251 DEB

AttivoLEO
NORAD 34793·DEBRIS·🇷🇺 Russia

Lanciato Jun 16, 1993 da Plesetsk Cosmodrome

Loading…

Prossimi Passaggi (prossime 24 ore)

TLE

AggiornatoSource: Space-Track

Epoca: Sep 14, 2026, 00:03 UTC

1 34793U 93036AAW 26257.00225531  .00000374  00000-0  12775-3 0  9996
2 34793  74.0006 101.6482 0051488 192.4107 318.5020 14.38994752912897

Traccia COSMOS 2251 DEB in tempo reale con AllMySat

Download on the App Store